Location: ???????
(55.4231°N, 38.5570°E)
Time: 13:25:57
(UTC+00:00)

ATLAS 2AS CENTAUR R/B - Pass Details

Date: 05 August 2024
Orbit: 1023 x 1188 km, 63.7° (Epoch: 18 September)

Event Time Altitude Azimuth Distance (km) Brightness Sun altitude
Exits shadow 00:44:49 - 237° (WSW) 3,254 4.6 -7.0°
Reaches altitude 10° 00:45:25 10° 237° (WSW) 3,043 4.4 -7.0°
Maximum altitude 00:52:41 78° 324° (NW) 1,146 2.9 -6.2°
Drops below altitude 10° 00:59:41 10° 51° (NE) 2,932 6.9 -5.5°
Sets 01:02:19 0° 53° (NE) 3,868 8.5 -5.2°
